Previsão horária em Almoloya

Hoje, 23 Janeiro, Sábado

Tempo Temperatura Precipitação Vento Pressão Humidade
00:00 +12°C° 0 mm 1 m/s 560 mmHg 67%
01:00 +12°C° 0 mm 1 m/s 560 mmHg 67%
02:00 +12°C° 0 mm 1 m/s 560 mmHg 68%
03:00 +11°C° 0 mm 1 m/s 560 mmHg 69%
04:00 +11°C° 0 mm 1 m/s 560 mmHg 70%
05:00 +11°C° 0 mm 1 m/s 560 mmHg 67%
06:00 +12°C° 0 mm 1 m/s 561 mmHg 63%
07:00 +13°C° 0 mm 0 m/s 562 mmHg 59%
08:00 +14°C° 0 mm 0 m/s 563 mmHg 55%
09:00 +16°C° 0 mm 0 m/s 563 mmHg 48%
10:00 +20°C° 0 mm 1 m/s 564 mmHg 40%
11:00 +21°C° 0 mm 1 m/s 565 mmHg 33%
12:00 +22°C° 0 mm 1 m/s 564 mmHg 31%
13:00 +22°C° 0 mm 1 m/s 564 mmHg 28%
14:00 +23°C° 0 mm 2 m/s 563 mmHg 25%
15:00 +21°C° 0 mm 2 m/s 563 mmHg 33%
16:00 +19°C° 0 mm 2 m/s 562 mmHg 39%
17:00 +18°C° 0 mm 2 m/s 561 mmHg 46%
18:00 +17°C° 0 mm 2 m/s 561 mmHg 49%
19:00 +16°C° 0 mm 1 m/s 561 mmHg 53%
20:00 +15°C° 0 mm 1 m/s 561 mmHg 57%
21:00 +14°C° 0 mm 1 m/s 561 mmHg 56%
22:00 +14°C° 0 mm 1 m/s 561 mmHg 56%
23:00 +13°C° 0 mm 1 m/s 560 mmHg 56%

Amanhã, 24 Janeiro, Domingo

Tempo Temperatura Precipitação Vento Pressão Humidade
00:00 +13°C° 0 mm 1 m/s 560 mmHg 59%
01:00 +13°C° 0 mm 1 m/s 560 mmHg 61%
02:00 +12°C° 0 mm 0 m/s 559 mmHg 64%
03:00 +12°C° 0 mm 1 m/s 559 mmHg 64%
04:00 +12°C° 0 mm 1 m/s 559 mmHg 65%
05:00 +12°C° 0 mm 1 m/s 559 mmHg 66%
06:00 +13°C° 0 mm 1 m/s 560 mmHg 62%
07:00 +14°C° 0 mm 1 m/s 561 mmHg 59%
08:00 +15°C° 0 mm 1 m/s 561 mmHg 55%
09:00 +18°C° 0 mm 1 m/s 562 mmHg 48%
10:00 +19°C° 0 mm 1 m/s 563 mmHg 41%
11:00 +20°C° 0 mm 2 m/s 563 mmHg 33%
12:00 +21°C° 0 mm 2 m/s 563 mmHg 30%
13:00 +21°C° 0 mm 3 m/s 563 mmHg 27%
14:00 +22°C° 0 mm 3 m/s 562 mmHg 24%
15:00 +20°C° 0 mm 3 m/s 561 mmHg 32%
16:00 +19°C° 0 mm 4 m/s 561 mmHg 39%
17:00 +17°C° 0 mm 4 m/s 560 mmHg 47%
18:00 +16°C° 0 mm 3 m/s 560 mmHg 52%
19:00 +15°C° 0 mm 2 m/s 560 mmHg 57%
20:00 +14°C° 0 mm 2 m/s 560 mmHg 62%
21:00 +13°C° 0 mm 1 m/s 559 mmHg 63%
22:00 +13°C° 0 mm 1 m/s 559 mmHg 64%
23:00 +12°C° 0 mm 1 m/s 559 mmHg 65%

Depois de amanhã, 25 Janeiro, Segunda-feira

Tempo Temperatura Precipitação Vento Pressão Humidade
00:00 +12°C° 0 mm 1 m/s 559 mmHg 68%
01:00 +12°C° 0 mm 1 m/s 558 mmHg 70%
02:00 +11°C° 0 mm 1 m/s 558 mmHg 72%
03:00 +11°C° 0 mm 1 m/s 558 mmHg 75%
04:00 +10°C° 0 mm 1 m/s 557 mmHg 78%
05:00 +10°C° 0 mm 1 m/s 557 mmHg 80%
06:00 +11°C° 0 mm 1 m/s 558 mmHg 74%
07:00 +13°C° 0 mm 1 m/s 559 mmHg 68%
08:00 +14°C° 0 mm 1 m/s 560 mmHg 62%
09:00 +16°C° 0 mm 1 m/s 561 mmHg 54%
10:00 +18°C° 0 mm 2 m/s 562 mmHg 46%
11:00 +20°C° 0 mm 2 m/s 562 mmHg 38%
12:00 +20°C° 0 mm 3 m/s 562 mmHg 36%
13:00 +21°C° 0 mm 3 m/s 562 mmHg 33%
14:00 +21°C° 0 mm 4 m/s 561 mmHg 31%
15:00 +20°C° 0 mm 4 m/s 561 mmHg 38%
16:00 +19°C° 0 mm 4 m/s 560 mmHg 44%
17:00 +17°C° 0 mm 4 m/s 559 mmHg 50%
18:00 +16°C° 0 mm 3 m/s 559 mmHg 55%
19:00 +14°C° 0 mm 3 m/s 559 mmHg 61%
20:00 +13°C° 0 mm 2 m/s 559 mmHg 66%
21:00 +13°C° 0 mm 1 m/s 559 mmHg 66%
22:00 +12°C° 0 mm 1 m/s 559 mmHg 66%
23:00 +12°C° 0 mm 1 m/s 558 mmHg 66%

26 Janeiro, Terça-feira

Tempo Temperatura Precipitação Vento Pressão Humidade
00:00 +11°C° 0 mm 1 m/s 558 mmHg 68%
01:00 +11°C° 0 mm 1 m/s 558 mmHg 69%
02:00 +11°C° 0 mm 1 m/s 558 mmHg 70%
03:00 +10°C° 0 mm 1 m/s 558 mmHg 72%
04:00 +10°C° 0 mm 1 m/s 557 mmHg 75%
05:00 +9°C° 0 mm 1 m/s 557 mmHg 77%
06:00 +11°C° 0 mm 1 m/s 558 mmHg 73%
07:00 +12°C° 0 mm 1 m/s 559 mmHg 69%
08:00 +13°C° 0 mm 2 m/s 560 mmHg 66%
09:00 +15°C° 0 mm 2 m/s 561 mmHg 58%
10:00 +17°C° 0 mm 2 m/s 562 mmHg 50%
11:00 +19°C° 0 mm 3 m/s 562 mmHg 42%
12:00 +20°C° 0 mm 3 m/s 562 mmHg 40%
13:00 +20°C° 0 mm 3 m/s 562 mmHg 38%
14:00 +21°C° 0 mm 4 m/s 561 mmHg 36%
15:00 +20°C° 0.2 mm 3 m/s 561 mmHg 42%
16:00 +18°C° 0.2 mm 3 m/s 560 mmHg 49%
17:00 +17°C° 0.2 mm 3 m/s 559 mmHg 55%
18:00 +14°C° 0.1 mm 3 m/s 559 mmHg 59%
19:00 +14°C° 0.1 mm 2 m/s 559 mmHg 63%
20:00 +13°C° 0.1 mm 2 m/s 559 mmHg 68%
21:00 +13°C° 0 mm 1 m/s 559 mmHg 68%
22:00 +12°C° 0 mm 1 m/s 559 mmHg 69%
23:00 +12°C° 0 mm 1 m/s 559 mmHg 70%

27 Janeiro, Quarta-feira

Tempo Temperatura Precipitação Vento Pressão Humidade
00:00 +12°C° 0 mm 1 m/s 559 mmHg 71%
01:00 +11°C° 0 mm 1 m/s 558 mmHg 73%
02:00 +10°C° 0 mm 0 m/s 558 mmHg 74%
03:00 +10°C° 0 mm 0 m/s 558 mmHg 74%
04:00 +10°C° 0 mm 0 m/s 558 mmHg 74%
05:00 +9°C° 0 mm 0 m/s 559 mmHg 74%
06:00 +11°C° 0 mm 0 m/s 560 mmHg 67%
07:00 +14°C° 0 mm 1 m/s 561 mmHg 60%
08:00 +15°C° 0 mm 1 m/s 563 mmHg 54%
09:00 +17°C° 0 mm 2 m/s 563 mmHg 49%
10:00 +18°C° 0 mm 3 m/s 564 mmHg 44%
11:00 +20°C° 0 mm 4 m/s 565 mmHg 39%
12:00 +20°C° 0 mm 5 m/s 565 mmHg 42%
13:00 +20°C° 0 mm 5 m/s 564 mmHg 44%
14:00 +20°C° 0 mm 5 m/s 564 mmHg 46%
15:00 +17°C° 0.2 mm 5 m/s 563 mmHg 57%
16:00 +15°C° 0.2 mm 5 m/s 562 mmHg 69%
17:00 +13°C° 0.2 mm 5 m/s 562 mmHg 80%
18:00 +12°C° 0.1 mm 5 m/s 562 mmHg 81%
19:00 +12°C° 0.1 mm 4 m/s 563 mmHg 82%
20:00 +11°C° 0.1 mm 3 m/s 563 mmHg 83%
21:00 +11°C° 0.1 mm 3 m/s 563 mmHg 85%
22:00 +10°C° 0.1 mm 2 m/s 563 mmHg 88%
23:00 +10°C° 0.1 mm 2 m/s 563 mmHg 90%

28 Janeiro, Quinta-feira

Tempo Temperatura Precipitação Vento Pressão Humidade
00:00 +10°C° 0 mm 2 m/s 562 mmHg 89%
01:00 +10°C° 0 mm 2 m/s 562 mmHg 88%
02:00 +10°C° 0 mm 2 m/s 562 mmHg 87%
03:00 +10°C° 0 mm 2 m/s 562 mmHg 86%
04:00 +10°C° 0 mm 2 m/s 562 mmHg 85%
05:00 +10°C° 0 mm 2 m/s 563 mmHg 84%
06:00 +10°C° 0 mm 2 m/s 563 mmHg 82%
07:00 +11°C° 0 mm 1 m/s 564 mmHg 81%
08:00 +11°C° 0 mm 1 m/s 564 mmHg 79%
09:00 +13°C° 0 mm 1 m/s 565 mmHg 72%
10:00 +14°C° 0 mm 1 m/s 565 mmHg 66%
11:00 +16°C° 0 mm 2 m/s 566 mmHg 59%
Mostrar mais

Necessitamos do seu Consentimento

A Meteoprog e os seus Fornecedores de Serviços podem armazenar e aceder a dados pessoais como cookies, identificadores do dispositivo ou outras tecnologias semelhantes existentes no seu dispositivo e processar estes dados para personalizar conteúdos e anúncios, assim como funcionalidades nas redes sociais e análise de tráfego.

  • Armazenar e/ou aceder a informações no seu dispositivo

    Os cookies, identificadores do dispositivo ou outras informações podem ser armazenados ou acedidos no seu dispositivo, para os fins acima indicados.

  • Anúncios e conteúdos personalizados, medição de anúncios e conteúdos, dados sobre o público-alvo e desenvolvimento de produtos

    Os anúncios e os conteúdos podem ser personalizados com base num perfil. Podem ser adicionados dados adicionais para uma maior personalização dos anúncios e dos conteúdos. A eficácia dos anúncios e dos conteúdos pode ser medida. Podem ser obtidas informações sobre o público que visualizou os anúncios e os conteúdos. Estes dados podem ser usados para desenvolver ou melhorar sistemas, softwares ou a experiência do utilizador.

Ao clicar em "Eu concordo”, permitirá o uso de cookies, identificadores do dispositivo e web beacons mencionados ou outras tecnologias semelhantes. As configurações do navegador do seu dispositivo podem ser alteradas.

Para certos fins, podem ser invocados interesses legítimos ao invés de consentimento. Pode ler mais informação sobre este assunto na nossa Política de Privacidade e Cookies.